TimeEDT,TemperatureF,Dew PointF,Humidity,Sea Level PressureIn,VisibilityMPH,Wind Direction,Wind SpeedMPH,Gust SpeedMPH,PrecipitationIn,Events,Conditions,WindDirDegrees,DateUTC
12:52 AM,60.1,57.9,93,30.05,10.0,Calm,Calm,-,N/A,,Clear,0,2013-08-12 04:52:00
1:52 AM,59.0,57.0,93,30.05,10.0,Calm,Calm,-,N/A,,Clear,0,2013-08-12 05:52:00
2:52 AM,59.0,57.0,93,30.04,10.0,Calm,Calm,-,N/A,,Clear,0,2013-08-12 06:52:00
3:52 AM,59.0,57.0,93,30.04,10.0,Calm,Calm,-,N/A,,Overcast,0,2013-08-12 07:52:00
4:52 AM,59.0,57.0,93,30.03,10.0,Calm,Calm,-,N/A,,Partly Cloudy,0,2013-08-12 08:52:00
5:52 AM,57.9,57.0,97,30.03,10.0,Calm,Calm,-,N/A,,Mostly Cloudy,0,2013-08-12 09:52:00
6:00 AM,57.2,57.2,100,30.03,10.0,Calm,Calm,-,N/A,,Mostly Cloudy,0,2013-08-12 10:00:00
6:14 AM,59.0,57.2,94,30.04,10.0,Calm,Calm,-,N/A,,Overcast,0,2013-08-12 10:14:00
6:25 AM,59.0,57.2,94,30.04,10.0,Calm,Calm,-,N/A,,Overcast,0,2013-08-12 10:25:00
6:52 AM,59.0,57.0,93,30.05,10.0,Calm,Calm,-,N/A,,Overcast,0,2013-08-12 10:52:00
7:52 AM,61.0,59.0,93,30.05,10.0,Calm,Calm,-,N/A,,Mostly Cloudy,0,2013-08-12 11:52:00
8:52 AM,66.0,61.0,84,30.04,10.0,Calm,Calm,-,N/A,,Mostly Cloudy,0,2013-08-12 12:52:00
9:52 AM,73.0,61.0,66,30.03,10.0,Calm,Calm,-,N/A,,Mostly Cloudy,0,2013-08-12 13:52:00
10:52 AM,75.0,55.9,51,30.03,10.0,Variable,3.5,-,N/A,,Clear,0,2013-08-12 14:52:00
11:52 AM,77.0,57.0,50,30.01,10.0,NNW,4.6,-,N/A,,Clear,330,2013-08-12 15:52:00
12:52 PM,78.1,55.9,46,30.00,10.0,Calm,Calm,-,N/A,,Clear,0,2013-08-12 16:52:00
1:52 PM,78.1,54.0,43,29.99,10.0,Calm,Calm,-,N/A,,Partly Cloudy,0,2013-08-12 17:52:00
2:52 PM,79.0,55.9,45,29.98,10.0,West,3.5,-,N/A,,Overcast,270,2013-08-12 18:52:00
3:52 PM,80.1,57.0,45,29.97,10.0,SSW,8.1,-,N/A,,Scattered Clouds,210,2013-08-12 19:52:00
4:52 PM,80.1,57.9,47,29.95,10.0,SW,8.1,-,N/A,,Partly Cloudy,220,2013-08-12 20:52:00
5:52 PM,80.1,57.9,47,29.95,10.0,SSW,4.6,-,N/A,,Clear,210,2013-08-12 21:52:00
6:52 PM,77.0,62.1,60,29.95,10.0,South,5.8,-,N/A,,Clear,190,2013-08-12 22:52:00
7:52 PM,73.9,63.0,68,29.95,10.0,South,3.5,-,N/A,,Clear,190,2013-08-12 23:52:00
8:52 PM,71.1,63.0,75,29.95,10.0,Calm,Calm,-,N/A,,Clear,0,2013-08-13 00:52:00
9:52 PM,68.0,63.0,84,29.95,10.0,Calm,Calm,-,N/A,,Clear,0,2013-08-13 01:52:00
10:52 PM,66.0,63.0,90,29.94,10.0,Calm,Calm,-,N/A,,Clear,0,2013-08-13 02:52:00
11:52 PM,64.0,61.0,90,29.95,10.0,Calm,Calm,-,N/A,,Clear,0,2013-08-13 03:52:00